Weather History for Millinocket, ME

Change the Weather History Date:

Monday, December 31, 2012

  Actual Average Record
Temperature  
Mean Temperature 16 °F 17 °F  
Max Temperature 24 °F 26 °F 43 °F (1912)
Min Temperature 7 °F 8 °F -35 °F (1917)
Degree Days  
Heating Degree Days 49 48  
Month to date heating degree days 1231 1323  
Since 1 July heating degree days 2874 3165  
Cooling Degree Days 0 0  
Month to date cooling degree days 0 0  
Year to date cooling degree days 443 268  
Moisture  
Dew Point 7 °F    
Average Humidity 65    
Maximum Humidity 81    
Minimum Humidity 49    
Precipitation  
Precipitation T in 0.07 in 1.67 in (1962)
Month to date precipitation 3.04 3.53  
Year to date precipitation 38.60 42.68  
Sea Level Pressure  
Sea Level Pressure 29.74 in    
Wind  
Wind Speed 11 mph (WNW)    
Max Wind Speed 31 mph    
Max Gust Speed 47 mph    
Visibility 9 miles    
Events Snow    
T = Trace of Precipitation, MM = Missing Value Source: NWS Daily Summary

Daily Weather History Graph

Daily Weather History Graph

Search for Another Location

Airport:

Trip Planner

Search our weather history database for the weather conditions in past years. The results will help you decide how hot, cold, wet, or windy it might be!

Date:

Astronomy

Dec. 31, 2012 Rise Set
Actual Time 7:15 AM EST 4:00 PM EST
Civil Twilight 6:41 AM EST 4:35 PM EST
Nautical Twilight 6:03 AM EST 5:12 PM EST
Astronomical Twilight 5:27 AM EST 5:48 PM EST
Moon 7:39 PM EST (12/31) 8:45 AM EST (12/31)
Length of Visible Light 9h 53m
Length of Day
8h 45m
Waning Gibbous, 90% of the Moon is Illuminated
Dec 31
Waning Gibbous
Jan 4
Last Quarter
Jan 11
New
Jan 18
First Quarter
Jan 26
Full

Hourly Weather History & Observations

Time (EST) Temp. Windchill Dew Point Humidity Pressure Visibility Wind Dir Wind Speed Gust Speed Precip Events Conditions
12:53 AM 7.0 °F -15.3 °F -2.0 °F 67% 29.69 in 6.0 mi WNW 26.5 mph 38.0 mph 0.00 in   Haze
1:53 AM 7.0 °F -13.6 °F -2.9 °F 64% 29.71 in 9.0 mi West 21.9 mph 38.0 mph 0.00 in   Clear
2:53 AM 7.0 °F -13.6 °F -2.0 °F 67% 29.74 in 9.0 mi West 21.9 mph 34.5 mph 0.00 in   Clear
3:53 AM 7.0 °F -6.6 °F -2.0 °F 67% 29.78 in 10.0 mi NNW 9.2 mph 20.7 mph 0.00 in   Clear
4:53 AM 7.0 °F 0.1 °F -2.0 °F 67% 29.78 in 10.0 mi Variable 3.5 mph - N/A   Clear
5:53 AM 9.0 °F 2.4 °F -2.0 °F 61% 29.78 in 10.0 mi Variable 3.5 mph - N/A   Clear
6:53 AM 9.0 °F -5.9 °F -0.9 °F 64% 29.79 in 10.0 mi NW 11.5 mph 21.9 mph N/A   Clear
7:53 AM 10.0 °F -10.8 °F -0.0 °F 64% 29.77 in 3.0 mi WNW 25.3 mph 39.1 mph N/A Snow Blowing Snow
8:53 AM 12.0 °F -7.3 °F 1.0 °F 61% 29.77 in 8.0 mi WNW 23.0 mph 33.4 mph 0.00 in   Clear
9:53 AM 17.1 °F -0.3 °F 3.9 °F 56% 29.77 in 5.0 mi West 21.9 mph 40.3 mph 0.00 in   Clear
10:53 AM 19.9 °F 5.2 °F 3.9 °F 50% 29.78 in 10.0 mi West 17.3 mph 34.5 mph 0.00 in   Clear
11:45 AM 21.2 °F 4.2 °F 6.8 °F 54% 29.72 in 2.5 mi WNW 25.3 mph 47.2 mph 0.00 in   Partly Cloudy
11:53 AM 21.0 °F 7.1 °F 7.0 °F 55% 29.75 in 5.0 mi West 16.1 mph 36.8 mph 0.00 in   Clear
12:53 PM 21.0 °F 7.6 °F 8.1 °F 57% 29.75 in 8.0 mi West 15.0 mph 33.4 mph 0.00 in   Clear
1:53 PM 21.9 °F 8.2 °F 8.1 °F 55% 29.77 in 10.0 mi WNW 16.1 mph 31.1 mph 0.00 in   Clear
2:53 PM 21.9 °F 11.7 °F 9.0 °F 58% 29.79 in 10.0 mi WNW 9.2 mph 18.4 mph N/A   Clear
3:53 PM 21.0 °F 13.4 °F 10.0 °F 63% 29.78 in 10.0 mi West 5.8 mph - N/A   Clear
4:53 PM 19.9 °F 7.9 °F 10.9 °F 68% 29.78 in 10.0 mi WNW 11.5 mph - N/A   Clear
5:53 PM 19.9 °F 12.1 °F 10.9 °F 68% 29.76 in 10.0 mi WNW 5.8 mph - N/A   Mostly Cloudy
6:53 PM 21.0 °F 14.6 °F 12.9 °F 71% 29.75 in 10.0 mi West 4.6 mph - N/A   Overcast
7:10 PM 21.2 °F 16.4 °F 12.2 °F 68% 29.71 in 10.0 mi West 3.5 mph - N/A   Overcast
7:42 PM 21.2 °F 16.4 °F 14.0 °F 74% 29.70 in 10.0 mi WNW 3.5 mph - N/A   Overcast
7:53 PM 21.0 °F 14.6 °F 14.0 °F 74% 29.74 in 10.0 mi West 4.6 mph - N/A   Overcast
8:53 PM 21.9 °F - 15.1 °F 75% 29.72 in 10.0 mi Calm Calm - N/A   Overcast
9:53 PM 24.1 °F - 17.1 °F 75% 29.69 in 10.0 mi Calm Calm - N/A   Overcast
10:53 PM 23.0 °F - 17.1 °F 78% 29.65 in 10.0 mi Calm Calm - N/A   Overcast
11:53 PM 24.1 °F - 17.1 °F 75% 29.61 in 10.0 mi Calm Calm - N/A   Overcast